• In Russia
  • List of Countries
  • For 7 days
  • Water Temperature
  • Satellite Maps
  • Weather Map
  • Weather Widgets
  • user-avatar
    Login

    Hourly Weather Jewłach

    Today, 27 March, Monday

    Time Temperature Precipitation Wind Pressure Humidity
    00:00 +10°C° 0 mm 2 mps 760 mmHg 54%
    01:00 +10°C° 0 mm 2 mps 759 mmHg 54%
    02:00 +10°C° 0 mm 2 mps 759 mmHg 53%
    03:00 +10°C° 0 mm 2 mps 759 mmHg 55%
    04:00 +10°C° 0 mm 2 mps 759 mmHg 55%
    05:00 +10°C° 0 mm 2 mps 759 mmHg 54%
    06:00 +10°C° 0 mm 2 mps 759 mmHg 53%
    07:00 +13°C° 0 mm 2 mps 759 mmHg 47%
    08:00 +16°C° 0 mm 3 mps 758 mmHg 41%
    09:00 +18°C° 0 mm 3 mps 758 mmHg 35%
    10:00 +20°C° 0 mm 3 mps 757 mmHg 33%
    11:00 +21°C° 0 mm 3 mps 757 mmHg 32%
    12:00 +22°C° 0 mm 3 mps 756 mmHg 30%
    13:00 +24°C° 0 mm 3 mps 756 mmHg 30%
    14:00 +24°C° 0 mm 3 mps 755 mmHg 29%
    15:00 +24°C° 0 mm 3 mps 755 mmHg 28%
    16:00 +21°C° 0 mm 3 mps 755 mmHg 33%
    17:00 +19°C° 0 mm 2 mps 755 mmHg 38%
    18:00 +17°C° 0 mm 2 mps 756 mmHg 43%
    19:00 +16°C° 0 mm 2 mps 756 mmHg 45%
    20:00 +15°C° 0 mm 2 mps 756 mmHg 47%
    21:00 +14°C° 0 mm 2 mps 757 mmHg 50%
    22:00 +14°C° 0 mm 1 mps 757 mmHg 51%
    23:00 +13°C° 0 mm 1 mps 757 mmHg 52%

    Tomorrow, 28 March, Tuesday

    Time Temperature Precipitation Wind Pressure Humidity
    00:00 +13°C° 0 mm 1 mps 756 mmHg 53%
    01:00 +13°C° 0 mm 1 mps 756 mmHg 54%
    02:00 +12°C° 0 mm 1 mps 756 mmHg 54%
    03:00 +12°C° 0 mm 1 mps 756 mmHg 55%
    04:00 +12°C° 0 mm 2 mps 757 mmHg 57%
    05:00 +10°C° 0 mm 3 mps 757 mmHg 60%
    06:00 +10°C° 0 mm 4 mps 758 mmHg 63%
    07:00 +10°C° 0 mm 5 mps 758 mmHg 59%
    08:00 +11°C° 0 mm 7 mps 759 mmHg 55%
    09:00 +12°C° 0 mm 8 mps 760 mmHg 50%
    10:00 +13°C° 0.1 mm 8 mps 760 mmHg 47%
    11:00 +13°C° 0.1 mm 8 mps 760 mmHg 43%
    12:00 +15°C° 0.1 mm 8 mps 760 mmHg 39%
    13:00 +15°C° 0.1 mm 7 mps 760 mmHg 39%
    14:00 +15°C° 0.1 mm 6 mps 760 mmHg 38%
    15:00 +15°C° 0.1 mm 6 mps 760 mmHg 37%
    16:00 +14°C° 0.2 mm 4 mps 760 mmHg 41%
    17:00 +13°C° 0.2 mm 3 mps 761 mmHg 46%
    18:00 +13°C° 0.2 mm 1 mps 761 mmHg 50%
    19:00 +12°C° 0 mm 2 mps 761 mmHg 51%
    20:00 +10°C° 0 mm 2 mps 762 mmHg 52%
    21:00 +9°C° 0 mm 2 mps 762 mmHg 54%
    22:00 +9°C° 0 mm 2 mps 762 mmHg 54%
    23:00 +8°C° 0 mm 3 mps 762 mmHg 55%

    Day after tomorrow, 29 March, Wednesday

    Time Temperature Precipitation Wind Pressure Humidity
    00:00 +8°C° 0 mm 3 mps 762 mmHg 56%
    01:00 +7°C° 0 mm 4 mps 761 mmHg 53%
    02:00 +7°C° 0 mm 5 mps 761 mmHg 50%
    03:00 +7°C° 0 mm 6 mps 761 mmHg 48%
    04:00 +7°C° 0 mm 6 mps 761 mmHg 46%
    05:00 +7°C° 0 mm 6 mps 761 mmHg 45%
    06:00 +7°C° 0 mm 6 mps 762 mmHg 44%
    07:00 +9°C° 0 mm 7 mps 761 mmHg 39%
    08:00 +11°C° 0 mm 7 mps 761 mmHg 35%
    09:00 +13°C° 0 mm 8 mps 761 mmHg 31%
    10:00 +15°C° 0 mm 8 mps 761 mmHg 29%
    11:00 +16°C° 0 mm 7 mps 761 mmHg 28%
    12:00 +18°C° 0 mm 7 mps 761 mmHg 26%
    13:00 +18°C° 0 mm 7 mps 761 mmHg 25%
    14:00 +20°C° 0 mm 7 mps 761 mmHg 25%
    15:00 +20°C° 0 mm 7 mps 761 mmHg 25%
    16:00 +17°C° 0 mm 5 mps 761 mmHg 29%
    17:00 +17°C° 0 mm 4 mps 762 mmHg 32%
    18:00 +15°C° 0 mm 2 mps 763 mmHg 36%
    19:00 +14°C° 0 mm 2 mps 764 mmHg 40%
    20:00 +12°C° 0 mm 2 mps 765 mmHg 44%
    21:00 +10°C° 0 mm 2 mps 766 mmHg 48%
    22:00 +9°C° 0 mm 2 mps 766 mmHg 57%
    23:00 +8°C° 0 mm 3 mps 767 mmHg 66%

    30 March, Thursday

    Time Temperature Precipitation Wind Pressure Humidity
    00:00 +7°C° 0 mm 3 mps 767 mmHg 74%
    01:00 +7°C° 0 mm 2 mps 767 mmHg 77%
    02:00 +7°C° 0 mm 2 mps 767 mmHg 81%
    03:00 +7°C° 0 mm 1 mps 768 mmHg 84%
    04:00 +7°C° 0 mm 1 mps 768 mmHg 84%
    05:00 +7°C° 0 mm 1 mps 768 mmHg 85%
    06:00 +6°C° 0 mm 1 mps 768 mmHg 86%
    07:00 +8°C° 0 mm 1 mps 768 mmHg 77%
    08:00 +9°C° 0 mm 2 mps 768 mmHg 68%
    09:00 +12°C° 0 mm 2 mps 767 mmHg 60%
    10:00 +13°C° 0 mm 2 mps 767 mmHg 56%
    11:00 +14°C° 0 mm 2 mps 766 mmHg 52%
    12:00 +16°C° 0 mm 2 mps 765 mmHg 49%
    13:00 +16°C° 0 mm 2 mps 764 mmHg 47%
    14:00 +17°C° 0 mm 2 mps 763 mmHg 46%
    15:00 +17°C° 0 mm 2 mps 762 mmHg 44%
    16:00 +16°C° 0 mm 1 mps 762 mmHg 50%
    17:00 +14°C° 0 mm 1 mps 762 mmHg 55%
    18:00 +13°C° 0 mm 1 mps 762 mmHg 61%
    19:00 +12°C° 0 mm 1 mps 762 mmHg 63%
    20:00 +11°C° 0 mm 1 mps 763 mmHg 66%
    21:00 +11°C° 0 mm 1 mps 763 mmHg 69%
    22:00 +10°C° 0 mm 1 mps 763 mmHg 67%
    23:00 +9°C° 0 mm 2 mps 762 mmHg 66%

    31 March, Friday

    Time Temperature Precipitation Wind Pressure Humidity
    00:00 +9°C° 0 mm 2 mps 762 mmHg 65%
    01:00 +9°C° 0 mm 2 mps 762 mmHg 62%
    02:00 +9°C° 0 mm 3 mps 761 mmHg 60%
    03:00 +9°C° 0 mm 3 mps 761 mmHg 58%
    04:00 +9°C° 0 mm 3 mps 761 mmHg 56%
    05:00 +9°C° 0 mm 3 mps 762 mmHg 54%
    06:00 +9°C° 0 mm 3 mps 762 mmHg 52%
    07:00 +12°C° 0 mm 4 mps 762 mmHg 45%
    08:00 +14°C° 0 mm 4 mps 762 mmHg 38%
    09:00 +18°C° 0 mm 4 mps 762 mmHg 32%
    10:00 +19°C° 0 mm 4 mps 761 mmHg 30%
    11:00 +20°C° 0 mm 4 mps 761 mmHg 27%
    12:00 +22°C° 0 mm 4 mps 761 mmHg 25%
    13:00 +22°C° 0 mm 4 mps 761 mmHg 25%
    14:00 +22°C° 0 mm 3 mps 761 mmHg 25%
    15:00 +22°C° 0 mm 3 mps 761 mmHg 24%
    16:00 +20°C° 0 mm 2 mps 762 mmHg 29%
    17:00 +19°C° 0 mm 2 mps 763 mmHg 33%
    18:00 +18°C° 0 mm 1 mps 763 mmHg 38%
    19:00 +16°C° 0.1 mm 3 mps 764 mmHg 45%
    20:00 +14°C° 0.1 mm 4 mps 765 mmHg 52%
    21:00 +13°C° 0.1 mm 5 mps 766 mmHg 59%
    22:00 +12°C° 0.3 mm 5 mps 767 mmHg 66%
    23:00 +10°C° 0.3 mm 6 mps 767 mmHg 73%

    1 April, Saturday

    Time Temperature Precipitation Wind Pressure Humidity
    00:00 +9°C° 0.3 mm 6 mps 767 mmHg 80%
    01:00 +8°C° 0.4 mm 6 mps 767 mmHg 80%
    02:00 +8°C° 0.4 mm 6 mps 768 mmHg 81%
    03:00 +7°C° 0.4 mm 6 mps 768 mmHg 82%
    04:00 +7°C° 0.3 mm 5 mps 768 mmHg 82%
    05:00 +6°C° 0.3 mm 5 mps 769 mmHg 81%
    06:00 +6°C° 0.3 mm 5 mps 769 mmHg 81%
    07:00 +6°C° 0.1 mm 5 mps 769 mmHg 78%
    08:00 +6°C° 0.1 mm 5 mps 769 mmHg 75%
    09:00 +7°C° 0.1 mm 5 mps 768 mmHg 72%
    10:00 +7°C° 0 mm 5 mps 768 mmHg 70%
    11:00 +7°C° 0 mm 5 mps 768 mmHg 68%
    12:00 +8°C° 0 mm 5 mps 768 mmHg 66%
    13:00 +8°C° 0.1 mm 4 mps 767 mmHg 66%
    14:00 +8°C° 0.1 mm 4 mps 767 mmHg 66%
    15:00 +8°C° 0.1 mm 4 mps 766 mmHg 66%
    16:00 +8°C° 0.1 mm 3 mps 766 mmHg 69%
    17:00 +8°C° 0.1 mm 3 mps 766 mmHg 73%
    18:00 +7°C° 0.1 mm 2 mps 766 mmHg 76%
    19:00 +7°C° 0 mm 2 mps 767 mmHg 79%
    20:00 +6°C° 0 mm 2 mps 767 mmHg 82%
    21:00 +7°C° 0 mm 1 mps 767 mmHg 85%
    22:00 +6°C° 0 mm 1 mps 766 mmHg 88%
    23:00 +5°C° 0 mm 1 mps 765 mmHg 91%
    Show more